Date String (YYYY-MM-DD hh:mm:ss) UTC,Instrument flags,Ambient pressure (hPa),Sample flow (lpm),Bypass flow (lpm),Sample temperature (°C),Ambient temperature (°C),ASC tube jacket temperature (°C),LED temperature (°C),Box temperature (°C),Sample RH (%),Span deviation,Mass concentration (μg/m³),Mass concentration (μg/m³),Mass concentration (μg/m³)
DateTimeUTC,F1_M11,P_M11,Q1_M11,Q2_M11,T1_M11,T2_M11,T3_M11,T4_M11,T5_M11,U1_M11,ZSPAN_M11,X0_M11,X2_M11,X1_M11
2023-01-16 07:00:00,,0810.2,4.99,0.00,22.6,21.2,00.0,31.4,24.4,19.1,0000.0,0008.86,0003.66,0003.17
2023-01-16 07:01:00,,0810.3,5.00,0.00,22.6,21.2,00.0,31.4,24.4,19.1,0000.0,0008.71,0003.65,0003.17
2023-01-16 07:02:00,,0810.3,5.00,0.00,22.6,21.2,00.0,31.4,24.4,19.1,0000.0,0008.13,0003.63,0003.17
2023-01-16 07:03:00,,0810.3,4.99,0.00,22.6,21.2,00.0,31.4,24.4,19.1,0000.0,0008.05,0003.60,0003.15
2023-01-16 07:04:00,,0810.3,5.01,0.00,22.6,21.2,00.0,31.4,24.4,19.1,0000.0,0007.83,0003.56,0003.14
2023-01-16 07:05:00,,0810.3,5.02,0.00,22.6,21.2,00.0,31.4,24.4,19.1,0000.0,0007.31,0003.54,0003.13
2023-01-16 07:06:00,,0810.2,5.02,0.00,22.6,21.2,00.0,31.4,24.4,19.3,0000.0,0007.07,0003.53,0003.15
2023-01-16 07:07:00,,0810.2,4.99,0.00,22.6,21.2,00.0,31.4,24.4,19.3,0000.0,0007.40,0003.51,0003.15
2023-01-16 07:08:00,,0810.3,5.00,0.00,22.6,21.2,00.0,31.4,24.4,19.2,0000.0,0007.43,0003.53,0003.15
2023-01-16 07:09:00,,0810.3,4.99,0.00,22.6,21.2,00.0,31.4,24.4,19.2,0000.0,0007.32,0003.51,0003.15
2023-01-16 07:10:00,,0810.3,4.99,0.00,22.6,21.2,00.0,31.4,24.4,19.2,0000.0,0007.22,0003.48,0003.15
2023-01-16 07:11:00,,0810.3,5.00,0.00,22.6,21.2,00.0,31.4,24.4,19.2,0000.0,0007.10,0003.50,0003.16
2023-01-16 07:12:00,,0810.2,4.99,0.00,22.6,21.2,00.0,31.4,24.4,19.2,0000.0,0007.04,0003.52,0003.17
2023-01-16 07:13:00,,0810.2,4.99,0.00,22.6,21.2,00.0,31.4,24.4,19.2,0000.0,0006.77,0003.52,0003.19
2023-01-16 07:14:00,,0810.2,5.00,0.00,22.6,21.2,00.0,31.4,24.4,19.2,0000.0,0007.17,0003.55,0003.21
2023-01-16 07:15:00,,0810.2,5.00,0.00,22.6,21.2,00.0,31.4,24.4,19.2,0000.0,0007.84,0003.59,0003.23
2023-01-16 07:16:00,,0810.3,4.99,0.00,22.6,21.2,00.0,31.4,24.4,19.2,0000.0,0007.81,0003.62,0003.25
2023-01-16 07:17:00,,0810.2,5.01,0.00,22.6,21.2,00.0,31.4,24.4,19.2,0000.0,0007.67,0003.65,0003.25
2023-01-16 07:18:00,,0810.2,5.00,0.00,22.6,21.2,00.0,31.4,24.4,19.2,0000.0,0007.31,0003.67,0003.27
2023-01-16 07:19:00,,0810.2,5.00,0.00,22.6,21.2,00.0,31.4,24.4,19.2,0000.0,0007.37,0003.67,0003.28
2023-01-16 07:20:00,,0810.2,5.00,0.00,22.6,21.2,00.0,31.4,24.4,19.2,0000.0,0007.51,0003.65,0003.29
2023-01-16 07:21:00,,0810.2,5.00,0.00,22.6,21.2,00.0,31.4,24.4,19.2,0000.0,0007.44,0003.65,0003.31
2023-01-16 07:22:00,,0810.2,5.00,0.00,22.5,21.2,00.0,31.4,24.4,19.1,0000.0,0007.41,0003.65,0003.32
2023-01-16 07:23:00,,0810.2,5.00,0.00,22.6,21.2,00.0,31.4,24.4,19.1,0000.0,0007.45,0003.65,0003.34
2023-01-16 07:24:00,,0810.2,5.00,0.00,22.6,21.2,00.0,31.4,24.4,19.1,0000.0,0007.59,0003.64,0003.35
2023-01-16 07:25:00,,0810.2,5.00,0.00,22.5,21.2,00.0,31.4,24.4,19.1,0000.0,0007.41,0003.66,0003.37
2023-01-16 07:26:00,,0810.2,5.00,0.00,22.5,21.2,00.0,31.4,24.4,19.1,0000.0,0006.52,0003.67,0003.40
2023-01-16 07:27:00,,0810.3,5.00,0.00,22.5,21.2,00.0,31.4,24.3,19.1,0000.0,0006.50,0003.67,0003.42
2023-01-16 07:28:00,,0810.3,5.01,0.00,22.5,21.2,00.0,31.4,24.3,19.1,0000.0,0006.43,0003.68,0003.45
2023-01-16 07:29:00,,0810.3,4.99,0.00,22.5,21.2,00.0,31.4,24.3,19.0,0000.0,0007.68,0003.72,0003.47
2023-01-16 07:30:00,,0810.2,5.00,0.00,22.5,21.2,00.0,31.4,24.4,19.0,0000.0,0007.83,0003.75,0003.51
2023-01-16 07:31:00,,0810.2,5.00,0.00,22.5,21.2,00.0,31.4,24.4,19.0,0000.0,0007.65,0003.79,0003.56
2023-01-16 07:32:00,,0810.2,5.00,0.00,22.5,21.2,00.0,31.4,24.3,19.0,0000.0,0007.71,0003.84,0003.60
2023-01-16 07:33:00,,0810.2,5.00,0.00,22.5,21.2,00.0,31.4,24.3,19.0,0000.0,0007.78,0003.88,0003.64
2023-01-16 07:34:00,,0810.2,5.00,0.00,22.5,21.2,00.0,31.4,24.4,19.0,0000.0,0007.74,0003.91,0003.67
2023-01-16 07:35:00,,0810.2,5.00,0.00,22.5,21.1,00.0,31.4,24.3,19.0,0000.0,0007.67,0003.96,0003.71
2023-01-16 07:36:00,,0810.2,5.01,0.00,22.5,21.1,00.0,31.4,24.4,19.0,0000.0,0007.76,0004.01,0003.75
2023-01-16 07:37:00,,0810.2,5.01,0.00,22.5,21.1,00.0,31.4,24.3,19.0,0000.0,0007.87,0004.07,0003.78
2023-01-16 07:38:00,,0810.2,5.00,0.00,22.5,21.1,00.0,31.4,24.4,19.0,0000.0,0007.88,0004.10,0003.82
2023-01-16 07:39:00,,0810.1,5.00,0.00,22.5,21.1,00.0,31.4,24.4,18.9,0000.0,0007.90,0004.12,0003.85
2023-01-16 07:40:00,,0810.2,5.00,0.00,22.5,21.1,00.0,31.4,24.4,19.0,0000.0,0007.10,0004.14,0003.88
2023-01-16 07:41:00,,0810.1,5.01,0.00,22.5,21.1,00.0,31.4,24.4,19.0,0000.0,0006.89,0004.15,0003.90
2023-01-16 07:42:00,,0810.1,5.00,0.00,22.5,21.1,00.0,31.4,24.3,19.0,0000.0,0007.15,0004.17,0003.90
2023-01-16 07:43:00,,0810.1,5.00,0.00,22.5,21.1,00.0,31.4,24.3,19.2,0000.0,0007.21,0004.17,0003.90
2023-01-16 07:44:00,,0810.1,5.00,0.00,22.5,21.1,00.0,31.4,24.3,19.1,0000.0,0007.23,0004.16,0003.89
2023-01-16 07:45:00,,0810.1,5.00,0.00,22.5,21.1,00.0,31.4,24.3,19.0,0000.0,0007.96,0004.15,0003.89
2023-01-16 07:46:00,,0810.1,5.00,0.00,22.5,21.1,00.0,31.4,24.3,19.0,0000.0,0007.97,0004.16,0003.90
2023-01-16 07:47:00,,0810.2,5.00,0.00,22.5,21.1,00.0,31.4,24.3,19.0,0000.0,0007.90,0004.14,0003.89
2023-01-16 07:48:00,,0810.2,5.00,0.00,22.5,21.1,00.0,31.3,24.3,19.0,0000.0,0007.81,0004.11,0003.88
2023-01-16 07:49:00,,0810.2,5.00,0.00,22.5,21.3,00.0,31.3,24.4,19.0,0000.0,0007.93,0004.12,0003.88
2023-01-16 07:50:00,,0810.1,5.00,0.00,22.6,22.1,00.0,31.3,24.6,19.0,0000.0,0007.96,0004.12,0003.89
2023-01-16 07:51:00,,0809.9,5.00,0.00,22.7,22.7,00.0,31.3,24.7,18.9,0000.0,0007.92,0004.14,0003.91
2023-01-16 07:52:00,,0810.1,4.99,0.00,22.7,22.5,00.0,31.4,24.8,18.9,0000.0,0007.82,0004.15,0003.92
2023-01-16 07:53:00,,0810.1,5.00,0.00,22.7,22.2,00.0,31.4,24.7,18.8,0000.0,0007.76,0004.17,0003.94
2023-01-16 07:54:00,,0810.2,5.00,0.00,22.7,22.0,00.0,31.4,24.6,18.9,0000.0,0007.78,0004.20,0003.96
2023-01-16 07:55:00,,0810.2,5.01,0.00,22.7,21.8,00.0,31.5,24.6,18.9,0000.0,0007.65,0004.23,0003.97
2023-01-16 07:56:00,,0810.2,4.99,0.00,22.7,21.7,00.0,31.5,24.6,18.9,0000.0,0006.90,0004.26,0003.99
2023-01-16 07:57:00,,0810.2,4.99,0.00,22.7,21.6,00.0,31.5,24.6,18.9,0000.0,0006.94,0004.25,0003.99
2023-01-16 07:58:00,,0810.2,5.00,0.00,22.7,21.5,00.0,31.5,24.6,18.9,0000.0,0007.03,0004.26,0003.98
2023-01-16 07:59:00,,0810.2,5.00,0.00,22.7,21.5,00.0,31.5,24.6,18.9,0000.0,0007.02,0004.25,0003.97
